This is the latest recevied weather packets stored in our database for station/object KI7MOQ. If no packets are shown the sender has not sent any weather packets the latest 10 day(s).
| Time | Temp. | Humidity | Pressure | Rain* | Wind** | Luminosity | Snow |
|---|---|---|---|---|---|---|---|
| 1778031627 | 17.22° C | 71% | 1017.6 hPa | 0 mm | - | 36 W/m² | - |
| 1778031325 | 17.22° C | 71% | 1017.6 hPa | 0 mm | - | 40 W/m² | - |
| 1778031021 | 17.22° C | 71% | 1017.9 hPa | 0 mm | - | 35 W/m² | - |
| 1778030717 | 17.22° C | 71% | 1017.7 hPa | 0 mm | - | 33 W/m² | - |
| 1778030415 | 17.22° C | 73% | 1017.6 hPa | 0 mm | - | 33 W/m² | - |
| 1778030112 | 17.22° C | 73% | 1017.6 hPa | 0 mm | - | 34 W/m² | - |
| 1778029808 | 17.22° C | 71% | 1017.7 hPa | 0 mm | - | 34 W/m² | - |
| 1778029508 | 17.22° C | 72% | 1017.7 hPa | 0 mm | - | 35 W/m² | - |
| 1778029203 | 17.22° C | 72% | 1017.9 hPa | 0 mm | - | 35 W/m² | - |
| 1778028901 | 17.22° C | 72% | 1017.8 hPa | 0 mm | - | 34 W/m² | - |
| 1778028596 | 17.22° C | 72% | 1017.7 hPa | 0 mm | - | 35 W/m² | - |
| 1778028294 | 17.22° C | 72% | 1017.8 hPa | 0 mm | - | 38 W/m² | - |
| 1778027990 | 16.67° C | 73% | 1017.8 hPa | 0 mm | - | 37 W/m² | - |
| 1778027687 | 16.67° C | 72% | 1017.7 hPa | 0 mm | - | 37 W/m² | - |
| 1778027383 | 17.22° C | 72% | 1017.9 hPa | 0 mm | - | 37 W/m² | - |
| 1778027079 | 17.22° C | 71% | 1017.8 hPa | 0 mm | - | 34 W/m² | - |
| 1778026774 | 17.22° C | 72% | 1017.7 hPa | 0 mm | - | 33 W/m² | - |
| 1778026472 | 17.22° C | 72% | 1018 hPa | 0 mm | - | 38 W/m² | - |
| 1778026169 | 16.67° C | 73% | 1017.9 hPa | 0 mm | - | 40 W/m² | - |
| 1778025866 | 17.22° C | 73% | 1018.1 hPa | 0 mm | - | 43 W/m² | - |
| 1778025563 | 16.67° C | 73% | 1017.8 hPa | 0 mm | - | 48 W/m² | - |
| 1778025261 | 16.67° C | 73% | 1018 hPa | 0 mm | - | 45 W/m² | - |
| 1778024958 | 17.22° C | 73% | 1018.2 hPa | 0 mm | - | 39 W/m² | - |
| 1778024655 | 16.67° C | 74% | 1018.2 hPa | 0 mm | - | 33 W/m² | - |
| 1778024352 | 16.67° C | 73% | 1018.3 hPa | 0 mm | - | 31 W/m² | - |
* Rain latest hour (hover to see other rain measurements)
** Current wind speed in m/s (hover to see current wind gust speed)